Location: Góry Miechowskie
(50.3599°N, 20.1803°E)
Time: 15:06:35
(UTC+00:00)

deb Explorer IX - Pass Details

Date: 14 September 2024
Orbit: 504 x 830 km, 38.7° (Epoch: 04 October)

Event Time Altitude Azimuth Distance (km) Brightness Sun altitude
Rises 19:29:20 0° 230° (SW) 3,429 ? -23.6°
Reaches altitude 10° 19:32:25 10° 216° (SW) 2,488 ? -24.0°
Enters shadow 19:34:15 17° 202° (SSW) 2,044 ? -24.2°
